EW0184 Weather Reports


Display with metric or nautical units.
time (UTC)temp
F
wind
direction
speed
MPH
gust
MPH
rain 1hr
in
rain 24hr
in
rain mn
in
humidity
%
barometer
mb
20260903005623 85 72 0.0 0.0 0.00 0.00 0.00 38 1004.6
20260903005134 85 69 0.0 0.0 0.00 0.00 0.00 38 1004.7
20260903004628 86 69 0.0 0.0 0.00 0.00 0.00 37 1004.7
20260903004126 86 69 0.0 0.0 0.00 0.00 0.00 36 1004.7
20260903003632 87 70 0.0 0.0 0.00 0.00 0.00 36 1004.7
20260903003128 88 69 0.0 0.0 0.00 0.00 0.00 36 1004.7
20260903002622 88 69 0.0 1.0 0.00 0.00 0.00 34 1004.6
20260903002131 89 115 0.0 1.0 0.00 0.00 0.00 37 1004.7
20260903001625 89 116 0.0 0.0 0.00 0.00 0.00 35 1004.7
20260903001138 89 115 0.0 0.0 0.00 0.00 0.00 34 1004.8
20260903000629 90 116 0.0 4.0 0.00 0.00 0.00 32 1004.7
20260903000124 91 118 0.0 4.0 0.00 0.00 0.00 28 1004.8
20260902235634 91 133 0.0 3.0 0.00 0.00 0.00 28 1004.8
20260902235129 91 72 0.0 3.0 0.00 0.00 0.00 31 1004.7
20260902234637 91 184 0.0 3.0 0.00 0.00 0.00 30 1004.8
20260902234137 92 228 0.0 1.0 0.00 0.00 0.00 29 1004.8
20260902233634 92 106 0.0 1.0 0.00 0.00 0.00 29 1004.8
20260902233131 92 108 0.0 2.0 0.00 0.00 0.00 27 1004.9
20260902232626 92 134 0.0 2.0 0.00 0.00 0.00 31 1004.9
20260902232136 93 96 0.0 2.0 0.00 0.00 0.00 32 1005.0
20260902231631 94 124 0.0 1.0 0.00 0.00 0.00 33 1005.0
20260902231121 94 133 0.0 1.0 0.00 0.00 0.00 32 1005.1
20260902230630 94 153 0.0 3.0 0.00 0.00 0.00 30 1005.2
20260902230127 94 153 0.0 4.0 0.00 0.00 0.00 28 1005.2
20260902225635 94 150 0.0 4.0 0.00 0.00 0.00 30 1005.2
20260902225130 93 260 0.0 5.0 0.00 0.00 0.00 31 1005.4
20260902224637 93 98 0.0 2.0 0.00 0.00 0.00 29 1005.4
20260902224129 93 133 0.0 3.0 0.00 0.00 0.00 31 1005.4
20260902223622 93 155 0.0 3.0 0.00 0.00 0.00 30 1005.5
20260902223135 93 8 0.0 3.0 0.00 0.00 0.00 29 1005.6
20260902222628 93 50 0.0 3.0 0.00 0.00 0.00 29 1005.6
20260902222123 94 335 0.0 4.0 0.00 0.00 0.00 31 1005.7
20260902221632 95 240 1.0 4.0 0.00 0.00 0.00 27 1005.7
20260902221127 95 270 0.0 4.0 0.00 0.00 0.00 30 1005.7
20260902220636 96 68 0.0 5.0 0.00 0.00 0.00 27 1005.6
20260902220129 95 283 0.0 5.0 0.00 0.00 0.00 27 1005.7
20260902215624 94 246 0.0 4.0 0.00 0.00 0.00 28 1005.8
20260902215135 95 274 0.0 4.0 0.00 0.00 0.00 27 1005.8
20260902214626 95 356 0.0 4.0 0.00 0.00 0.00 27 1005.8
20260902214139 96 133 0.0 4.0 0.00 0.00 0.00 31 1005.8
20260902213632 95 73 0.0 4.0 0.00 0.00 0.00 29 1006.0
20260902213132 96 115 1.0 5.0 0.00 0.00 0.00 25 1006.0
20260902212633 97 127 2.0 7.0 0.00 0.00 0.00 24 1006.2
20260902212131 98 253 1.0 8.0 0.00 0.00 0.00 25 1006.1
20260902211624 98 211 1.0 8.0 0.00 0.00 0.00 26 1006.1
20260902210628 97 280 1.0 5.0 0.00 0.00 0.00 26 1006.3
20260902210124 97 73 0.0 6.0 0.00 0.00 0.00 30 1006.3
20260902205632 96 39 1.0 6.0 0.00 0.00 0.00 30 1006.4
20260902205134 96 113 0.0 2.0 0.00 0.00 0.00 29 1006.5
20260902204628 96 111 0.0 4.0 0.00 0.00 0.00 26 1006.6
20260902204135 97 135 0.0 5.0 0.00 0.00 0.00 26 1006.7
20260902203630 98 304 1.0 6.0 0.00 0.00 0.00 28 1006.8
20260902203123 99 197 1.0 6.0 0.00 0.00 0.00 26 1006.9
20260902202634 99 131 1.0 4.0 0.00 0.00 0.00 25 1006.9
20260902202127 98 108 0.0 2.0 0.00 0.00 0.00 26 1007.1
20260902201635 98 207 0.0 3.0 0.00 0.00 0.00 27 1007.2
20260902201130 97 155 0.0 5.0 0.00 0.00 0.00 27 1007.4
20260902200622 96 208 2.0 7.0 0.00 0.00 0.00 26 1007.4
20260902200140 96 207 3.0 7.0 0.00 0.00 0.00 26 1007.6
20260902195626 97 167 0.0 4.0 0.00 0.00 0.00 30 1007.6
20260902195134 97 295 0.0 2.0 0.00 0.00 0.00 27 1007.7
20260902194628 97 259 0.0 5.0 0.00 0.00 0.00 26 1007.7
20260902194123 96 113 0.0 5.0 0.00 0.00 0.00 27 1007.9
20260902193632 96 228 1.0 4.0 0.00 0.00 0.00 28 1007.9
20260902193127 95 127 0.0 5.0 0.00 0.00 0.00 28 1008.0
20260902192635 95 134 1.0 5.0 0.00 0.00 0.00 27 1008.0
20260902192131 96 98 1.0 4.0 0.00 0.00 0.00 27 1008.2
20260902191625 96 94 0.0 3.0 0.00 0.00 0.00 28 1008.2
20260902191135 95 242 0.0 4.0 0.00 0.00 0.00 28 1008.4
20260902190626 95 120 1.0 4.0 0.00 0.00 0.00 29 1008.4
20260902190135 94 155 1.0 4.0 0.00 0.00 0.00 29 1008.5
20260902185531 95 250 1.0 4.0 0.00 0.00 0.00 34 1008.5
20260902185026 94 321 0.0 4.0 0.00 0.00 0.00 28 1008.8
20260902184533 94 171 0.0 6.0 0.00 0.00 0.00 30 1008.8
20260902184024 94 107 2.0 6.0 0.00 0.00 0.00 27 1009.0
20260902183535 94 109 0.0 3.0 0.00 0.00 0.00 30 1009.0
20260902183031 94 166 1.0 3.0 0.00 0.00 0.00 30 1009.1
20260902182527 94 135 0.0 3.0 0.00 0.00 0.00 31 1009.2
20260902182034 93 115 0.0 4.0 0.00 0.00 0.00 31 1009.3
20260902181530 94 173 0.0 5.0 0.00 0.00 0.00 30 1009.4
20260902181024 94 148 1.0 5.0 0.00 0.00 0.00 31 1009.5
20260902180533 94 127 1.0 4.0 0.00 0.00 0.00 31 1009.5
20260902180027 93 204 0.0 5.0 0.00 0.00 0.00 31 1009.6
20260902175539 93 105 0.0 5.0 0.00 0.00 0.00 31 1009.7
20260902175023 92 100 0.0 3.0 0.00 0.00 0.00 32 1009.8
20260902174634 92 198 1.0 3.0 0.00 0.00 0.00 32 1009.8
20260902174027 92 127 0.0 3.0 0.00 0.00 0.00 33 1009.8
20260902173524 92 163 0.0 3.0 0.00 0.00 0.00 34 1009.9
20260902173033 92 127 0.0 4.0 0.00 0.00 0.00 33 1009.9
20260902172527 92 114 0.0 3.0 0.00 0.00 0.00 35 1010.0
20260902172028 91 162 0.0 5.0 0.00 0.00 0.00 36 1010.0
20260902171533 90 115 0.0 3.0 0.00 0.00 0.00 35 1010.1
20260902171028 90 114 0.0 3.0 0.00 0.00 0.00 37 1010.2
20260902170520 90 103 0.0 2.0 0.00 0.00 0.00 34 1010.3
20260902170032 90 108 0.0 2.0 0.00 0.00 0.00 34 1010.3
20260902165528 90 143 0.0 1.0 0.00 0.00 0.00 36 1010.3
20260902165024 88 146 0.0 1.0 0.00 0.00 0.00 36 1010.4
20260902164533 87 138 0.0 1.0 0.00 0.00 0.00 35 1010.4
20260902164028 87 176 0.0 1.0 0.00 0.00 0.00 37 1010.4
20260902163522 86 106 0.0 1.0 0.00 0.00 0.00 36 1010.4
20260902163032 85 106 0.0 3.0 0.00 0.00 0.00 39 1010.4
20260902162525 85 113 1.0 3.0 0.00 0.00 0.00 37 1010.4
20260902162036 84 109 0.0 2.0 0.00 0.00 0.00 39 1010.4
20260902161541 85 107 1.0 2.0 0.00 0.00 0.00 38 1010.4
20260902161042 85 159 0.0 2.0 0.00 0.00 0.00 38 1010.4
20260902160526 85 113 0.0 2.0 0.00 0.00 0.00 40 1010.4
20260902160021 84 138 0.0 2.0 0.00 0.00 0.00 40 1010.4
20260902155530 84 112 0.0 2.0 0.00 0.00 0.00 40 1010.4
20260902155027 84 120 0.0 1.0 0.00 0.00 0.00 41 1010.5
20260902154536 84 158 0.0 1.0 0.00 0.00 0.00 40 1010.5
20260902154033 83 167 0.0 1.0 0.00 0.00 0.00 43 1010.5
20260902153525 81 166 0.0 1.0 0.00 0.00 0.00 46 1010.5
20260902153039 81 110 0.0 1.0 0.00 0.00 0.00 46 1010.5
20260902152529 80 123 0.0 0.0 0.00 0.00 0.00 48 1010.5
20260902152025 79 122 0.0 0.0 0.00 0.00 0.00 50 1010.6
20260902151533 79 121 0.0 0.0 0.00 0.00 0.00 52 1010.5
20260902151029 78 123 0.0 0.0 0.00 0.00 0.00 55 1010.5
20260902150522 77 123 0.0 1.0 0.00 0.00 0.00 55 1010.6
20260902150034 77 123 0.0 1.0 0.00 0.00 0.00 56 1010.6
20260902145528 75 127 0.0 1.0 0.00 0.00 0.00 56 1010.6
20260902145023 74 214 0.0 1.0 0.00 0.00 0.00 56 1010.6
20260902144514 74 163 0.0 2.0 0.00 0.00 0.00 60 1010.5
20260902144033 74 163 0.0 2.0 0.00 0.00 0.00 60 1010.6
20260902143527 73 131 0.0 1.0 0.00 0.00 0.00 59 1010.5
20260902143023 73 113 0.0 1.0 0.00 0.00 0.00 60 1010.5
20260902142532 72 113 0.0 1.0 0.00 0.00 0.00 61 1010.5
20260902142026 71 114 0.0 1.0 0.00 0.00 0.00 62 1010.4
20260902141532 70 214 0.0 1.0 0.00 0.00 0.00 64 1010.3
20260902141031 70 217 0.0 1.0 0.00 0.00 0.00 64 1010.2
20260902140525 69 165 0.0 1.0 0.00 0.00 0.00 65 1010.2
20260902140038 69 170 0.0 2.0 0.00 0.00 0.00 66 1010.3
20260902135529 69 115 0.0 1.0 0.00 0.00 0.00 67 1010.2
20260902135023 68 124 0.0 1.0 0.00 0.00 0.00 68 1010.1
20260902134533 68 139 0.0 1.0 0.00 0.00 0.00 66 1010.0
20260902134029 68 136 0.0 1.0 0.00 0.00 0.00 66 1010.0
20260902133526 68 138 0.0 1.0 0.00 0.00 0.00 66 1010.0
20260902133032 68 219 0.0 1.0 0.00 0.00 0.00 66 1010.0
20260902132530 68 219 0.0 1.0 0.00 0.00 0.00 66 1009.9
20260902132020 68 214 0.0 2.0 0.00 0.00 0.00 67 1009.9
20260902131534 68 112 0.0 2.0 0.00 0.00 0.00 66 1009.8
20260902131025 68 115 0.0 2.0 0.00 0.00 0.00 66 1009.7
20260902130534 68 114 0.0 3.0 0.00 0.00 0.00 66 1009.7
20260902130029 67 211 0.0 1.0 0.00 0.00 0.00 65 1009.6
20260902125525 68 115 0.0 1.0 0.00 0.00 0.00 65 1009.5
20260902125037 68 269 0.0 1.0 0.00 0.00 0.00 65 1009.4
20260902124531 68 252 0.0 1.0 0.00 0.00 0.00 64 1009.4
20260902124023 69 252 0.0 1.0 0.00 0.00 0.00 63 1009.3
20260902123534 69 138 0.0 1.0 0.00 0.00 0.00 62 1009.2
20260902123045 69 259 0.0 2.0 0.00 0.00 0.00 62 1009.2
20260902122542 69 145 0.0 1.0 0.00 0.00 0.00 62 1009.3
20260902122026 69 134 0.0 1.0 0.00 0.00 0.00 63 1009.2
20260902121521 68 127 0.0 1.0 0.00 0.00 0.00 63 1009.2
20260902121032 68 169 0.0 1.0 0.00 0.00 0.00 66 1009.1
20260902120527 68 169 0.0 1.0 0.00 0.00 0.00 64 1009.1
20260902120035 68 145 0.0 1.0 0.00 0.00 0.00 65 1009.0
20260902115530 68 134 0.0 0.0 0.00 0.00 0.00 64 1009.0
20260902115024 69 134 0.0 0.0 0.00 0.00 0.00 64 1008.9
20260902114536 69 134 0.0 1.0 0.00 0.00 0.00 63 1008.9
20260902114029 69 134 0.0 1.0 0.00 0.00 0.00 63 1008.8
20260902113523 68 134 0.0 2.0 0.00 0.00 0.00 64 1008.7
20260902113032 68 146 0.0 2.0 0.00 0.00 0.00 65 1008.8
20260902112525 68 113 0.0 0.0 0.00 0.00 0.00 66 1008.8
20260902112035 68 113 0.0 0.0 0.00 0.00 0.00 65 1008.7
20260902111537 68 113 0.0 1.0 0.00 0.00 0.00 65 1008.7
20260902111025 68 113 0.0 0.0 0.00 0.00 0.00 65 1008.8
20260902110624 68 113 0.0 0.0 0.00 0.00 0.00 65 1008.8
20260902110134 68 113 0.0 0.0 0.00 0.00 0.00 65 1008.8
20260902105628 68 113 0.0 0.0 0.00 0.00 0.00 66 1008.7
20260902105122 68 113 0.0 0.0 0.00 0.00 0.00 67 1008.7
20260902104510 67 113 0.0 0.0 0.00 0.00 0.00 67 1008.7
20260902103633 67 113 0.0 1.0 0.00 0.00 0.00 69 1008.9
20260902103127 67 113 0.0 1.0 0.00 0.00 0.00 69 1008.8
20260902102620 67 113 0.0 1.0 0.00 0.00 0.00 71 1008.9
20260902102130 67 113 0.0 1.0 0.00 0.00 0.00 71 1008.9
20260902101627 67 113 0.0 1.0 0.00 0.00 0.00 71 1008.8
20260902101133 67 113 0.0 0.0 0.00 0.00 0.00 72 1008.7
20260902100627 67 113 0.0 1.0 0.00 0.00 0.00 71 1008.6
20260902100123 67 113 0.0 1.0 0.00 0.00 0.00 71 1008.6
20260902095632 67 114 0.0 0.0 0.00 0.00 0.00 71 1008.7
20260902095126 67 115 0.0 0.0 0.00 0.00 0.00 70 1008.7
20260902094636 67 114 0.0 0.0 0.00 0.00 0.00 70 1008.7
20260902094122 67 114 0.0 0.0 0.00 0.00 0.00 69 1008.5
20260902093631 68 115 0.0 0.0 0.00 0.00 0.00 69 1008.6
20260902093126 68 114 0.0 1.0 0.00 0.00 0.00 69 1008.5
20260902092624 68 114 0.0 1.0 0.00 0.00 0.00 68 1008.5
20260902092131 68 114 0.0 0.0 0.00 0.00 0.00 66 1008.4
20260902091628 68 114 0.0 0.0 0.00 0.00 0.00 66 1008.5
20260902091137 69 115 0.0 0.0 0.00 0.00 0.00 67 1008.4
20260902090633 69 114 0.0 0.0 0.00 0.00 0.00 66 1008.5
20260902090129 69 114 0.0 0.0 0.00 0.00 0.00 65 1008.4
20260902085622 69 114 0.0 0.0 0.00 0.00 0.00 64 1008.4
20260902085136 70 115 0.0 0.0 0.00 0.00 0.00 64 1008.5
20260902084630 70 115 0.0 0.0 0.00 0.00 0.00 63 1008.5
20260902084029 70 114 0.0 0.0 0.00 0.00 0.00 63 1008.6
20260902083524 71 114 0.0 0.0 0.00 0.00 0.00 61 1008.6
20260902083034 71 114 0.0 0.0 0.00 0.00 0.00 59 1008.7
20260902082531 72 114 0.0 0.0 0.00 0.00 0.00 58 1008.7
20260902082037 72 114 0.0 0.0 0.00 0.00 0.00 59 1008.6
20260902081533 72 114 0.0 0.0 0.00 0.00 0.00 57 1008.6
20260902081028 72 114 0.0 0.0 0.00 0.00 0.00 56 1008.5
20260902080524 73 114 0.0 0.0 0.00 0.00 0.00 55 1008.5
20260902080034 73 114 0.0 0.0 0.00 0.00 0.00 54 1008.5
20260902075527 74 114 0.0 1.0 0.00 0.00 0.00 54 1008.6
20260902075022 74 114 0.0 1.0 0.00 0.00 0.00 53 1008.7
20260902074533 75 114 0.0 0.0 0.00 0.00 0.00 52 1008.7
20260902074027 75 114 0.0 0.0 0.00 0.00 0.00 52 1008.7
20260902073524 75 114 0.0 3.0 0.00 0.00 0.00 51 1008.7
20260902073033 75 114 0.0 3.0 0.00 0.00 0.00 52 1008.7
20260902072526 73 113 0.0 3.0 0.00 0.00 0.00 55 1008.7
20260902072028 73 127 0.0 1.0 0.00 0.00 0.00 57 1008.6
20260902071533 73 128 0.0 1.0 0.00 0.00 0.00 55 1008.6
20260902071029 72 131 0.0 1.0 0.00 0.00 0.00 56 1008.6
20260902070521 72 131 0.0 1.0 0.00 0.00 0.00 57 1008.6
20260902070032 72 153 0.0 1.0 0.00 0.00 0.00 57 1008.5
20260902065532 72 152 0.0 0.0 0.00 0.00 0.00 58 1008.5
20260902065024 72 152 0.0 0.0 0.00 0.00 0.00 57 1008.4
20260902064536 72 153 0.0 0.0 0.00 0.00 0.00 57 1008.4
20260902064027 73 153 0.0 0.0 0.00 0.00 0.00 57 1008.4
20260902063529 73 153 0.0 0.0 0.00 0.00 0.00 56 1008.5
20260902063033 73 153 0.0 0.0 0.00 0.00 0.00 55 1008.5
20260902062529 73 152 0.0 0.0 0.00 0.00 0.00 55 1008.4
20260902062025 73 153 0.0 0.0 0.00 0.00 0.00 55 1008.4
20260902061541 73 152 0.0 0.0 0.00 0.00 0.00 55 1008.5
20260902061030 73 152 0.0 0.0 0.00 0.00 0.00 56 1008.5
20260902060528 73 153 0.0 0.0 0.00 0.00 0.00 58 1008.6
20260902060037 73 153 0.0 0.0 0.00 0.00 0.00 59 1008.6
20260902055531 73 153 0.0 0.0 0.00 0.00 0.00 59 1008.6
20260902055023 74 152 0.0 0.0 0.00 0.00 0.00 59 1008.5
20260902054531 74 153 0.0 0.0 0.00 0.00 0.00 61 1008.5
20260902054029 74 152 0.0 0.0 0.00 0.00 0.00 59 1008.3
20260902053524 74 152 0.0 0.0 0.00 0.00 0.00 58 1008.4
20260902053038 74 152 0.0 0.0 0.00 0.00 0.00 58 1008.4
20260902052533 74 152 0.0 0.0 0.00 0.00 0.00 56 1008.3
20260902052022 74 153 0.0 0.0 0.00 0.00 0.00 55 1008.4
20260902051535 74 152 0.0 0.0 0.00 0.00 0.00 55 1008.4
20260902051029 74 152 0.0 0.0 0.00 0.00 0.00 56 1008.4
20260902050525 74 152 0.0 0.0 0.00 0.00 0.00 57 1008.3
20260902050039 74 153 0.0 0.0 0.00 0.00 0.00 57 1008.4
20260902045529 74 153 0.0 1.0 0.00 0.00 0.00 57 1008.4
20260902045023 74 152 0.0 1.0 0.00 0.00 0.00 58 1008.4
20260902044534 73 153 0.0 0.0 0.00 0.00 0.00 61 1008.4
20260902044029 73 153 0.0 0.0 0.00 0.00 0.00 58 1008.3
20260902043522 73 153 0.0 0.0 0.00 0.00 0.00 61 1008.3
20260902043033 74 153 0.0 1.0 0.00 0.00 0.00 62 1008.3
20260902042528 74 135 0.0 1.0 0.00 0.00 0.00 60 1008.2
20260902042022 74 134 0.0 0.0 0.00 0.00 0.00 59 1008.1
20260902041531 74 135 0.0 0.0 0.00 0.00 0.00 59 1008.1
20260902041027 74 134 0.0 0.0 0.00 0.00 0.00 57 1008.0
20260902040522 75 135 0.0 0.0 0.00 0.00 0.00 56 1008.1
20260902040031 75 135 0.0 0.0 0.00 0.00 0.00 57 1008.1
20260902035532 75 135 0.0 0.0 0.00 0.00 0.00 56 1007.9
20260902035036 75 135 0.0 0.0 0.00 0.00 0.00 55 1008.0
20260902034530 75 136 0.0 0.0 0.00 0.00 0.00 54 1007.9
20260902034028 75 135 0.0 0.0 0.00 0.00 0.00 53 1007.8
20260902033535 76 135 0.0 0.0 0.00 0.00 0.00 56 1007.7
20260902033039 76 135 0.0 0.0 0.00 0.00 0.00 55 1007.6
20260902032528 76 135 0.0 0.0 0.00 0.00 0.00 54 1007.6
20260902032035 76 135 0.0 0.0 0.00 0.00 0.00 55 1007.5
20260902031532 76 134 0.0 0.0 0.00 0.00 0.00 55 1007.4
20260902031025 76 135 0.0 0.0 0.00 0.00 0.00 53 1007.3
20260902030536 76 135 0.0 0.0 0.00 0.00 0.00 53 1007.2
20260902030029 76 134 0.0 0.0 0.00 0.00 0.00 53 1007.1
20260902025526 77 135 0.0 0.0 0.00 0.00 0.00 54 1007.0
20260902025028 77 134 0.0 0.0 0.00 0.00 0.00 54 1006.9
20260902024530 77 134 0.0 0.0 0.00 0.00 0.00 53 1006.8
20260902024026 78 134 0.0 0.0 0.00 0.00 0.00 51 1006.7
20260902023535 78 135 0.0 0.0 0.00 0.00 0.00 52 1006.7
20260902023032 78 135 0.0 0.0 0.00 0.00 0.00 52 1006.5
20260902022524 78 134 0.0 0.0 0.00 0.00 0.00 51 1006.4
20260902022036 78 134 0.0 0.0 0.00 0.00 0.00 50 1006.3
20260902021535 78 134 0.0 0.0 0.00 0.00 0.00 50 1006.2
20260902021024 79 134 0.0 0.0 0.00 0.00 0.00 50 1006.1
20260902020537 79 136 0.0 0.0 0.00 0.00 0.00 50 1006.0
20260902020027 79 134 0.0 0.0 0.00 0.00 0.00 48 1006.0
20260902015524 79 134 0.0 0.0 0.00 0.00 0.00 48 1006.0
20260902015033 79 134 0.0 0.0 0.00 0.00 0.00 48 1005.9
20260902014536 80 134 0.0 0.0 0.00 0.00 0.00 47 1005.9
20260902014028 80 134 0.0 0.0 0.00 0.00 0.00 46 1005.9
20260902013533 80 134 0.0 1.0 0.00 0.00 0.00 46 1005.8
20260902013030 81 134 0.0 1.0 0.00 0.00 0.00 47 1005.7
20260902012523 81 134 0.0 0.0 0.00 0.00 0.00 47 1005.7
20260902012037 82 134 0.0 0.0 0.00 0.00 0.00 45 1005.7
20260902011535 82 134 0.0 0.0 0.00 0.00 0.00 45 1005.6
20260902011021 83 134 0.0 0.0 0.00 0.00 0.00 45 1005.6
20260902010529 84 134 0.0 0.0 0.00 0.00 0.00 45 1005.7
20260902010041 84 134 0.0 0.0 0.00 0.00 0.00 43 1005.7